Regional Weather Roundup
Issued by NWS

Home | Current Version | Previous Version | Text Only | Print | Product List | Glossary On
Versions: 1 2 3 4 5 6 7 8 9 10 11 12 13 14 15 16 17 18 19 20 21 22 23 24 25 26 27 28 29 30 31 32 33 34 35 36 37 38 39 40 41 42 43 44 45 46 47 48 49 50
000
ASUS45 KSLC 311410
RWRUT

UTAH REGIONAL WEATHER ROUNDUP
NATIONAL WEATHER SERVICE SALT LAKE CITY UT
800 AM MDT MON AUG 31 2015

UTZ001>011-023>025-311500-

NORTHERN UTAH

CITY           SKY/WX    TMP DP  RH WIND       PRES   REMARKS
BRIGHAM CITY   MOSUNNY   56  33  42 CALM      30.08S
HILL AFB       MOSUNNY   65  42  43 SE13      30.09R
LOGAN          SUNNY     49  40  71 CALM      30.12R
OGDEN          MOSUNNY   64  43  46 SW6       30.07R
PROVO AIRPORT  MOSUNNY   61  48  63 SE3       30.10R
SALT LAKE CITY MOSUNNY   65  41  41 SE8       30.07R
VERNAL         MOSUNNY   59  50  72 W5        30.17R
WENDOVER       MOSUNNY   64  28  25 CALM      30.10S
HEBER CITY     MOSUNNY   54  48  82 CALM      30.19R
WEST JORDAN    SUNNY     63  41  45 CALM      30.11R

$$

UTZ012>022-026-027-311500-

SOUTHERN/CENTRAL UTAH

CITY           SKY/WX    TMP DP  RH WIND       PRES   REMARKS
BLANDING       PTSUNNY   62  55  77 CALM      30.29R
BRYCE CANYON   PTSUNNY   49  47  93 W6        30.32R
CEDAR CITY     PTSUNNY   64  50  60 SE7       30.15R
DELTA          MOSUNNY   61  39  44 CALM      30.10R
HANKSVILLE     MOSUNNY   64  55  72 N3        30.13R
MILFORD        MOSUNNY   59  45  59 S7        30.11R
MOAB/CYNLANDS  PTSUNNY   64  59  83 E5        30.12R
PRICE          MOSUNNY   59  52  77 CALM      30.19R
ST GEORGE      MOSUNNY   75  55  50 SE5       30.01R

$$

REGIONAL REPORTS     COLORADO/ARIZONA

CITY           SKY/WX    TMP DP  RH WIND       PRES   REMARKS
CRAIG, CO      CLOUDY    58  50  75 E9        30.24R
GRAND JUNCTION CLOUDY    61  59  93 W8        30.17R
RIFLE          PTSUNNY   59  57  93 E3        30.22R
MONTROSE       CLOUDY    59  55  87 S3        30.23R
CORTEZ         SUNNY     60  49  66 NE6       30.23R
PAGE, AZ       MOSUNNY   67  59  75 CALM      30.12R
GRAND CANYON   CLOUDY    55  54  96 CALM      30.26R
KINGMAN        PTCLDY    77  42  28 SE6       30.00R
FLAGSTAFF      PTSUNNY   55  54  96 CALM      30.31R

$$

REGIONAL REPORTS    NEVADA/IDAHO/WYOMING

CITY           SKY/WX    TMP DP  RH WIND       PRES   REMARKS
LAS VEGAS, NV  MOCLDY    81  45  28 SW5       29.84R
ELY            CLEAR     43  27  53 S10       30.20R
ELKO           PTCLDY    43  22  43 CALM      30.15R
POCATELLO, ID  SUNNY     56  36  47 SW9       30.14R
BURLEY         SUNNY     48  40  73 S3        30.12R
EVANSTON, WY   CLOUDY    51  40  65 MISG      30.24R
ROCK SPRINGS   SUNNY     56  49  77 CALM      30.22R
KEMMERER       MOSUNNY   50  28  43 NW8       30.26R

$$


USA.gov is the U.S. government's official web portal to all federal, state and local government web resources and services.